Location: *
(60.1759°S, 155.0663°W)
Time: 04:40:58
(UTC+00:00)

ADEOS II - Pass Details

Date: 17 September 2019
Orbit: 799 x 801 km, 98.5° (Epoch: 22 October)

Event Time Altitude Azimuth Distance (km) Brightness Sun altitude
Exits shadow 13:54:15 13° 244° (WSW) 2,197 4.1 -18.6°
Drops below altitude 10° 13:55:44 10° 228° (SW) 2,419 4.4 -18.5°
Sets 13:59:20 0° 203° (SSW) 3,359 5.4 -18.1°
